EW3775 Weather Reports


time (UTC)temp
C
wind
direction
speed
KPH
gust
KPH
rain 1hr
cm
rain 24hr
cm
rain mn
cm
humidity
%
barometer
mb
20260510010324 10 4 0.0 0.0 0.00 0.56 0.56 91 1008.0
20260510005824 11 166 0.0 0.0 0.00 0.56 0.56 91 1008.0
20260510005323 11 166 0.0 0.0 0.00 0.56 0.56 90 1008.0
20260510004822 11 166 0.0 0.0 0.00 0.56 0.56 89 1007.8
20260510004340 11 166 0.0 0.0 0.00 0.56 0.56 89 1007.7
20260510003817 11 166 0.0 0.0 0.00 0.56 0.56 89 1007.7
20260510003337 12 166 0.0 0.0 0.00 0.56 0.56 89 1007.7
20260510002835 12 166 0.0 0.0 0.00 0.56 0.56 89 1007.6
20260510002355 12 166 0.0 0.0 0.00 0.56 0.56 89 1007.8
20260510001852 12 166 0.0 0.0 0.00 0.56 0.56 88 1007.8
20260510001329 12 166 0.0 0.0 0.00 0.56 0.56 88 1007.8
20260510000827 12 166 0.0 0.0 0.00 0.56 0.56 88 1007.6
20260510000327 12 166 0.0 0.0 0.00 0.56 0.56 88 1007.8
20260509235825 12 166 0.0 0.0 0.00 0.56 0.56 88 1007.6
20260509235323 12 177 0.0 0.0 0.00 0.56 0.56 88 1007.7
20260509234821 12 177 0.0 0.0 0.00 0.56 0.56 87 1007.4
20260509234320 12 176 0.0 0.0 0.00 0.56 0.56 87 1007.3
20260509233820 12 177 0.0 0.0 0.00 0.56 0.56 87 1007.3
20260509233318 12 212 0.0 0.0 0.00 0.56 0.56 87 1007.3
20260509232835 12 240 0.0 0.0 0.00 0.56 0.56 87 1007.3
20260509232313 12 260 0.0 0.0 0.00 0.56 0.56 87 1007.3
20260509231831 12 271 0.0 4.8 0.00 0.56 0.56 87 1007.3
20260509231330 12 189 0.0 4.8 0.00 0.56 0.56 87 1007.3
20260509230848 12 231 0.0 0.0 0.00 0.56 0.56 87 1007.3
20260509230329 12 265 0.0 0.0 0.00 0.56 0.56 87 1007.3
20260509225826 12 249 0.0 0.0 0.00 0.56 0.56 87 1007.3
20260509225326 12 185 0.0 8.0 0.00 0.56 0.56 87 1007.2
20260509224824 12 208 0.0 4.8 0.00 0.56 0.56 87 1007.1
20260509224323 12 250 0.0 12.9 0.00 0.56 0.56 87 1007.1
20260509223823 12 187 0.0 12.9 0.00 0.56 0.56 88 1007.1
20260509223323 12 185 0.0 6.4 0.00 0.56 0.56 88 1007.1
20260509222823 12 223 0.0 0.0 0.00 0.56 0.56 88 1007.0
20260509222320 12 226 0.0 0.0 0.00 0.56 0.56 88 1007.1
20260509221819 12 229 0.0 0.0 0.00 0.56 0.56 88 1007.2
20260509221318 12 201 0.0 0.0 0.00 0.56 0.56 89 1007.1
20260509220837 12 209 0.0 0.0 0.00 0.56 0.56 89 1007.1
20260509220317 12 204 0.0 6.4 0.00 0.56 0.56 89 1007.1
20260509215814 12 187 0.0 6.4 0.00 0.56 0.56 89 1007.2
20260509215332 12 201 0.0 0.0 0.00 0.56 0.56 90 1007.3
20260509214831 12 243 0.0 0.0 0.00 0.56 0.56 90 1007.3
20260509214331 12 217 0.0 0.0 0.00 0.56 0.56 90 1007.4
20260509213829 12 207 0.0 0.0 0.00 0.56 0.56 90 1007.4
20260509213329 12 158 0.0 0.0 0.00 0.56 0.56 90 1007.4
20260509212847 12 174 0.0 0.0 0.00 0.56 0.56 90 1007.6
20260509212323 12 233 0.0 0.0 0.00 0.56 0.56 90 1007.5
20260509211822 12 228 0.0 8.0 0.00 0.56 0.56 90 1007.6
20260509211321 12 259 0.0 8.0 0.00 0.56 0.56 90 1007.6
20260509210821 12 206 0.0 3.2 0.00 0.56 0.56 90 1007.7
20260509210320 12 217 0.0 0.0 0.00 0.56 0.56 90 1007.6
20260509205819 12 219 0.0 0.0 0.00 0.56 0.56 90 1007.7
20260509205318 12 174 0.0 0.0 0.00 0.56 0.56 90 1007.7
20260509204816 12 209 0.0 0.0 0.00 0.56 0.56 91 1007.7
20260509204315 11 235 0.0 0.0 0.00 0.56 0.56 91 1007.9
20260509203814 11 249 0.0 0.0 0.00 0.56 0.56 91 1007.9
20260509203335 11 201 0.0 0.0 0.00 0.56 0.56 91 1007.8
20260509202853 11 171 0.0 0.0 0.00 0.56 0.56 91 1007.9
20260509202351 11 215 0.0 0.0 0.00 0.56 0.56 91 1008.0
20260509201828 11 237 0.0 0.0 0.00 0.56 0.56 91 1008.0
20260509201327 11 181 0.0 0.0 0.00 0.56 0.56 91 1008.0
20260509200826 11 211 0.0 0.0 0.00 0.56 0.56 91 1008.0
20260509200325 11 258 0.0 0.0 0.00 0.56 0.56 91 1008.0
20260509195823 11 200 0.0 0.0 0.00 0.56 0.56 92 1008.0
20260509195321 11 227 0.0 0.0 0.00 0.56 0.56 92 1008.0
20260509194820 11 215 0.0 0.0 0.00 0.56 0.56 93 1008.2
20260509194318 11 222 0.0 0.0 0.00 0.56 0.56 93 1008.3
20260509193817 11 221 0.0 0.0 0.00 0.56 0.56 94 1008.4
20260509193318 11 191 0.0 0.0 0.00 0.56 0.56 93 1008.5
20260509192815 11 245 0.0 0.0 0.00 0.56 0.56 93 1008.6
20260509192332 11 206 0.0 0.0 0.00 0.56 0.56 94 1008.6
20260509191831 11 216 0.0 0.0 0.00 0.56 0.56 94 1008.6
20260509191329 10 211 0.0 0.0 0.00 0.56 0.56 93 1008.6
20260509190826 10 247 0.0 0.0 0.00 0.56 0.56 93 1008.6
20260509190328 10 229 0.0 0.0 0.00 0.56 0.56 93 1008.6
20260509185826 10 229 0.0 0.0 0.00 0.56 0.56 93 1008.6
20260509185324 11 229 0.0 0.0 0.00 0.56 0.56 93 1008.7
20260509184823 11 211 0.0 0.0 0.00 0.56 0.56 92 1008.7
20260509184322 11 241 0.0 0.0 0.00 0.56 0.56 92 1008.7
20260509183820 11 167 0.0 0.0 0.00 0.56 0.56 91 1008.7
20260509183321 11 237 0.0 0.0 0.00 0.56 0.56 91 1008.7
20260509182818 11 256 0.0 0.0 0.00 0.56 0.56 90 1008.8
20260509182318 11 164 0.0 0.0 0.00 0.56 0.56 90 1008.7
20260509181815 11 205 0.0 0.0 0.00 0.56 0.56 90 1008.7
20260509181314 11 257 0.0 0.0 0.00 0.56 0.56 89 1008.7
20260509180813 11 201 0.0 0.0 0.00 0.56 0.56 89 1008.6
20260509180328 11 223 0.0 0.0 0.00 0.56 0.56 89 1008.6
20260509175826 11 249 0.0 0.0 0.00 0.56 0.56 89 1008.5
20260509175324 11 229 0.0 0.0 0.00 0.56 0.56 89 1008.5
20260509174823 11 193 0.0 0.0 0.00 0.56 0.56 89 1008.5
20260509174322 11 218 0.0 0.0 0.00 0.56 0.56 90 1008.5
20260509173822 11 258 0.0 9.7 0.00 0.56 0.56 91 1008.5
20260509173322 11 186 0.0 9.7 0.00 0.56 0.56 91 1008.5
20260509172839 11 166 0.0 0.0 0.00 0.56 0.56 92 1008.4
20260509172316 11 232 0.0 11.3 0.00 0.56 0.56 93 1008.4
20260509171835 11 185 1.6 11.3 0.00 0.56 0.56 94 1008.5
20260509171353 11 205 0.0 0.0 0.00 0.56 0.56 95 1008.5
20260509170832 11 224 0.0 0.0 0.03 0.56 0.56 95 1008.6
20260509170332 11 185 0.0 1.6 0.03 0.56 0.56 95 1008.6
20260509165830 11 202 0.0 1.6 0.03 0.56 0.56 94 1008.7
20260509165350 11 188 0.0 0.0 0.03 0.56 0.56 95 1008.7
20260509164846 11 211 0.0 0.0 0.03 0.56 0.56 95 1008.8
20260509164323 11 210 0.0 1.6 0.03 0.56 0.56 95 1008.8
20260509163843 11 185 0.0 1.6 0.03 0.56 0.56 95 1008.9
20260509163321 11 228 0.0 0.0 0.05 0.56 0.56 96 1008.9
20260509162818 10 206 0.0 0.0 0.05 0.61 0.56 96 1009.0
20260509162317 10 185 0.0 6.4 0.05 0.61 0.56 96 1009.0
20260509161814 10 173 0.0 6.4 0.08 0.61 0.56 96 1009.0
20260509161334 10 226 0.0 0.0 0.08 0.61 0.56 96 1009.1
20260509160852 10 186 0.0 0.0 0.08 0.58 0.53 96 1009.1
20260509160330 10 221 0.0 0.0 0.08 0.58 0.53 96 1009.2
20260509155829 10 193 0.0 0.0 0.08 0.58 0.53 96 1009.3
20260509155329 10 199 0.0 3.2 0.10 0.58 0.53 96 1009.4
20260509154828 10 211 0.0 3.2 0.10 0.58 0.53 97 1009.5
20260509154347 10 133 0.0 0.0 0.13 0.58 0.53 96 1009.5
20260509153824 10 133 0.0 0.0 0.13 0.58 0.53 96 1009.7
20260509153323 9 133 0.0 0.0 0.10 0.56 0.51 96 1009.7
20260509152821 9 89 0.0 0.0 0.13 0.58 0.51 96 1009.8
20260509152319 9 89 0.0 0.0 0.15 0.58 0.51 96 1009.9
20260509151818 10 89 0.0 0.0 0.13 0.56 0.48 97 1009.9
20260509151316 9 89 0.0 0.0 0.13 0.56 0.48 97 1009.9
20260509150815 9 89 0.0 0.0 0.10 0.53 0.46 97 1010.0
20260509150315 9 89 0.0 0.0 0.10 0.53 0.46 97 1010.1
20260509145832 9 89 0.0 0.0 0.13 0.53 0.46 97 1010.1
20260509145331 8 89 0.0 0.0 0.10 0.51 0.43 96 1010.1
20260509144830 8 89 0.0 0.0 0.10 0.51 0.43 96 1010.2
20260509144329 8 89 0.0 0.0 0.08 0.48 0.41 96 1010.2
20260509143829 8 89 0.0 0.0 0.08 0.48 0.41 96 1010.2
20260509143329 8 89 0.0 0.0 0.08 0.46 0.38 97 1010.3
20260509142827 8 89 0.0 0.0 0.08 0.48 0.38 97 1010.2
20260509142325 8 89 0.0 0.0 0.05 0.46 0.36 97 1010.3
20260509141824 8 89 0.0 0.0 0.05 0.46 0.36 97 1010.3
20260509141327 8 89 0.0 0.0 0.05 0.46 0.36 97 1010.3
20260509140822 8 89 0.0 0.0 0.05 0.46 0.36 97 1010.3
20260509140323 8 89 0.0 0.0 0.05 0.43 0.33 97 1010.3
20260509135823 8 89 0.0 0.0 0.05 0.43 0.33 97 1010.2
20260509135321 7 89 0.0 0.0 0.08 0.43 0.33 97 1010.3
20260509134819 7 89 0.0 0.0 0.08 0.43 0.33 96 1010.3
20260509134318 7 89 0.0 0.0 0.10 0.43 0.33 97 1010.3
20260509133837 7 89 0.0 0.0 0.13 0.43 0.33 96 1010.3
20260509133336 7 89 0.0 0.0 0.10 0.41 0.30 96 1010.3
20260509132829 7 89 0.0 0.0 0.13 0.41 0.30 96 1010.3
20260509132348 6 89 0.0 0.0 0.15 0.41 0.30 96 1010.5
20260509131825 6 89 0.0 0.0 0.18 0.41 0.30 96 1010.3
20260509131324 6 89 0.0 0.0 0.20 0.41 0.30 96 1010.3
20260509130846 6 89 0.0 0.0 0.20 0.41 0.30 96 1010.4
20260509130325 6 89 0.0 0.0 0.20 0.38 0.28 96 1010.4
20260509125822 6 89 0.0 0.0 0.20 0.38 0.28 96 1010.4
20260509125320 6 89 0.0 0.0 0.20 0.36 0.25 96 1010.5
20260509124819 6 89 0.0 0.0 0.18 0.33 0.23 96 1010.5
20260509124317 6 89 0.0 0.0 0.18 0.33 0.23 96 1010.4
20260509123837 6 89 0.0 0.0 0.15 0.30 0.20 96 1010.4
20260509123316 5 89 0.0 0.0 0.13 0.28 0.18 96 1010.5
20260509122835 5 89 0.0 0.0 0.13 0.28 0.18 96 1010.5
20260509122313 5 89 0.0 0.0 0.10 0.25 0.15 96 1010.6
20260509121831 5 89 0.0 0.0 0.08 0.23 0.13 96 1010.8
20260509121330 5 89 0.0 0.0 0.05 0.20 0.10 95 1010.8
20260509120828 5 89 0.0 0.0 0.05 0.20 0.10 95 1010.9
20260509120330 5 89 0.0 0.0 0.03 0.18 0.08 95 1010.9
20260509115828 5 89 0.0 0.0 0.03 0.15 0.05 96 1010.8
20260509115326 5 89 0.0 0.0 0.03 0.15 0.05 96 1010.9
20260509114824 5 89 0.0 0.0 0.03 0.15 0.05 95 1010.8
20260509114323 5 89 0.0 0.0 0.03 0.15 0.05 95 1010.8
20260509113821 5 89 0.0 0.0 0.03 0.15 0.05 95 1010.8
20260509113342 5 89 0.0 0.0 0.03 0.15 0.05 95 1010.9
20260509112818 5 89 0.0 0.0 0.03 0.15 0.05 95 1010.9
20260509112317 4 89 0.0 0.0 0.03 0.15 0.05 95 1011.0
20260509111817 4 89 0.0 0.0 0.03 0.15 0.05 95 1010.8
20260509111314 4 89 0.0 0.0 0.03 0.15 0.05 95 1010.9
20260509110832 4 89 0.0 0.0 0.03 0.15 0.05 95 1010.9
20260509110332 4 89 0.0 0.0 0.03 0.15 0.05 95 1010.9
20260509105831 4 89 0.0 0.0 0.00 0.13 0.03 95 1010.8
20260509105330 4 89 0.0 0.0 0.00 0.13 0.03 95 1010.7
20260509104828 3 89 0.0 0.0 0.00 0.13 0.03 94 1010.7
20260509104326 3 89 0.0 0.0 0.00 0.13 0.03 94 1010.7
20260509103825 3 89 0.0 0.0 0.00 0.13 0.03 94 1010.6
20260509103325 3 89 0.0 0.0 0.00 0.13 0.03 94 1010.6
20260509102822 3 89 0.0 0.0 0.00 0.13 0.03 94 1010.4
20260509102321 3 89 0.0 0.0 0.00 0.13 0.03 94 1010.4
20260509101820 3 89 0.0 0.0 0.00 0.13 0.03 94 1010.4
20260509101320 3 89 0.0 0.0 0.00 0.13 0.03 94 1010.5
20260509100819 3 89 0.0 0.0 0.00 0.13 0.03 94 1010.4
20260509100318 3 89 0.0 0.0 0.00 0.13 0.03 94 1010.5
20260509095837 3 89 0.0 0.0 0.00 0.13 0.03 94 1010.5
20260509095335 3 89 0.0 0.0 0.00 0.13 0.03 93 1010.5
20260509094813 3 89 0.0 0.0 0.00 0.13 0.03 93 1010.5
20260509094331 3 89 0.0 0.0 0.00 0.13 0.03 93 1010.5
20260509093830 3 89 0.0 0.0 0.00 0.13 0.03 93 1010.6
20260509093330 3 89 0.0 0.0 0.00 0.13 0.03 93 1010.6
20260509092828 3 89 0.0 0.0 0.00 0.13 0.03 93 1010.7
20260509092327 3 89 0.0 0.0 0.00 0.13 0.03 93 1010.8
20260509091826 3 89 0.0 0.0 0.03 0.13 0.03 93 1010.7
20260509091325 3 89 0.0 0.0 0.03 0.13 0.03 93 1010.7
20260509090822 3 89 0.0 0.0 0.03 0.13 0.03 92 1010.8
20260509090323 3 89 0.0 0.0 0.03 0.13 0.03 92 1010.8
20260509085820 3 89 0.0 0.0 0.03 0.13 0.03 92 1010.9
20260509085317 3 89 0.0 0.0 0.03 0.13 0.03 92 1011.1
20260509084816 3 89 0.0 0.0 0.03 0.13 0.03 92 1011.0
20260509084315 3 62 0.0 0.0 0.03 0.13 0.03 92 1011.0
20260509083813 3 51 0.0 0.0 0.03 0.13 0.03 92 1011.1
20260509083314 3 334 0.0 0.0 0.03 0.13 0.03 92 1011.1
20260509082813 2 320 0.0 0.0 0.03 0.13 0.03 92 1011.0
20260509082332 2 320 0.0 0.0 0.03 0.13 0.03 92 1011.1
20260509081832 2 320 0.0 0.0 0.00 0.10 0.00 91 1011.1
20260509081331 2 320 0.0 0.0 0.00 0.10 0.00 91 1011.1
20260509080829 2 320 0.0 0.0 0.00 0.10 0.00 91 1011.1
20260509080327 2 320 0.0 0.0 0.00 0.10 0.00 92 1011.2
20260509075825 2 320 0.0 0.0 0.00 0.10 0.00 92 1011.2
20260509075324 2 320 0.0 0.0 0.00 0.10 0.00 91 1011.2
20260509074842 2 320 0.0 0.0 0.00 0.10 0.00 91 1011.2
20260509074320 2 320 0.0 0.0 0.00 0.10 0.00 92 1011.2
20260509073818 2 320 0.0 0.0 0.00 0.10 0.00 92 1011.1
20260509073319 2 320 0.0 0.0 0.00 0.10 0.00 91 1011.1
20260509072832 2 320 0.0 0.0 0.00 0.10 0.00 91 1011.1
20260509072353 2 320 0.0 0.0 0.00 0.10 0.00 92 1011.0
20260509071831 2 320 0.0 0.0 0.00 0.10 0.00 92 1011.1
20260509071351 2 320 0.0 0.0 0.00 0.10 0.00 92 1011.1
20260509070829 1 320 0.0 0.0 0.00 0.10 0.00 92 1011.1
20260509070329 1 320 0.0 0.0 0.00 0.10 0.00 92 1011.2
20260509065848 1 320 0.0 0.0 0.00 0.10 0.00 92 1011.2
20260509065326 1 320 0.0 0.0 0.00 0.10 0.00 92 1011.2
20260509064825 1 320 0.0 0.0 0.00 0.10 0.00 92 1011.3
20260509064323 1 320 0.0 0.0 0.00 0.10 0.00 92 1011.2
20260509063842 1 320 0.0 0.0 0.00 0.10 0.00 92 1011.3
20260509063320 1 320 0.0 0.0 0.00 0.10 0.00 92 1011.3
20260509062819 1 320 0.0 0.0 0.00 0.10 0.00 92 1011.5
20260509062318 1 320 0.0 0.0 0.00 0.10 0.00 92 1011.5
20260509061818 1 320 0.0 0.0 0.00 0.10 0.00 91 1011.4
20260509061317 1 320 0.0 0.0 0.00 0.10 0.00 91 1011.7
20260509060816 1 320 0.0 0.0 0.00 0.10 0.00 91 1011.6
20260509060315 1 320 0.0 0.0 0.00 0.10 0.00 91 1011.6
20260509055813 1 320 0.0 0.0 0.00 0.10 0.00 91 1011.7
20260509055335 1 320 0.0 0.0 0.00 0.10 0.00 91 1011.8
20260509054813 1 320 0.0 0.0 0.00 0.10 0.00 91 1011.9
20260509054331 1 320 0.0 0.0 0.00 0.10 0.00 90 1011.9
20260509053830 1 320 0.0 0.0 0.00 0.10 0.00 91 1011.8
20260509053330 1 320 0.0 0.0 0.00 0.10 0.00 90 1012.1
20260509052829 1 320 0.0 0.0 0.00 0.10 0.00 90 1012.0
20260509052327 1 320 0.0 0.0 0.00 0.10 0.00 90 1012.0
20260509051825 1 320 0.0 0.0 0.00 0.10 0.00 90 1012.0
20260509051344 1 320 0.0 0.0 0.00 0.10 0.00 90 1012.0
20260509050842 1 320 0.0 0.0 0.00 0.10 0.00 89 1012.0
20260509050320 1 320 0.0 0.0 0.00 0.10 0.00 89 1012.1
20260509045821 1 320 0.0 0.0 0.00 0.10 0.00 89 1012.1
20260509045319 1 320 0.0 0.0 0.00 0.10 0.00 89 1012.1
20260509044817 1 320 0.0 0.0 0.00 0.10 0.00 89 1012.1
20260509044336 1 320 0.0 0.0 0.00 0.10 0.00 88 1012.2
20260509043813 1 320 0.0 0.0 0.00 0.10 0.00 88 1012.2
20260509043314 1 320 0.0 0.0 0.00 0.10 0.00 88 1012.3
20260509042831 1 320 0.0 0.0 0.00 0.10 0.00 88 1012.3
20260509042329 2 320 0.0 0.0 0.00 0.10 0.00 87 1012.3
20260509041848 2 320 0.0 0.0 0.00 0.10 0.00 87 1012.2
20260509041326 2 320 0.0 0.0 0.00 0.10 0.00 86 1012.2
20260509040826 2 320 0.0 0.0 0.00 0.10 0.00 86 1012.3
20260509040346 2 320 0.0 0.0 0.00 0.10 0.00 86 1012.2
20260509035822 2 320 0.0 0.0 0.00 0.10 0.00 85 1012.2
20260509035322 2 320 0.0 0.0 0.00 0.10 0.00 85 1012.2
20260509034821 2 320 0.0 0.0 0.00 0.10 0.00 84 1012.2
20260509034319 3 320 0.0 0.0 0.00 0.10 0.00 84 1012.2
20260509033819 3 320 0.0 0.0 0.00 0.10 0.00 84 1012.3
20260509033319 3 320 0.0 0.0 0.00 0.10 0.00 84 1012.2
20260509032817 3 320 0.0 0.0 0.00 0.10 0.00 84 1012.2
20260509032317 3 320 0.0 0.0 0.00 0.10 0.00 83 1012.2
20260509031816 3 320 0.0 0.0 0.00 0.10 0.00 83 1012.2
20260509031313 3 320 0.0 0.0 0.00 0.10 0.00 82 1012.3
20260509030827 3 320 0.0 0.0 0.00 0.10 0.00 82 1012.3
20260509030327 4 320 0.0 0.0 0.00 0.10 0.00 82 1012.3
20260509025825 4 320 0.0 0.0 0.00 0.10 0.00 82 1012.4
20260509025326 4 320 0.0 0.0 0.00 0.10 0.00 82 1012.3
20260509024826 4 320 0.0 0.0 0.00 0.10 0.00 82 1012.3
20260509024345 4 320 0.0 0.0 0.00 0.10 0.00 82 1012.3
20260509023824 4 320 0.0 0.0 0.00 0.10 0.00 82 1012.3
20260509023322 4 320 0.0 0.0 0.00 0.10 0.00 82 1012.3
20260509022821 3 320 0.0 0.0 0.00 0.10 0.10 82 1012.4
20260509022319 3 320 0.0 0.0 0.00 0.10 0.10 82 1012.4
20260509021818 3 320 0.0 0.0 0.00 0.10 0.10 82 1012.6
20260509021317 3 320 0.0 0.0 0.00 0.10 0.10 82 1012.4
20260509020817 3 320 0.0 0.0 0.00 0.10 0.10 82 1012.4
20260509020316 3 320 0.0 0.0 0.00 0.10 0.10 82 1012.4
20260509015815 3 320 0.0 0.0 0.00 0.10 0.10 82 1012.3
20260509015313 3 320 0.0 0.0 0.00 0.10 0.10 81 1012.3
20260509014832 3 320 0.0 0.0 0.00 0.10 0.10 81 1012.2
20260509014352 3 320 0.0 0.0 0.00 0.10 0.10 81 1012.1
20260509013829 3 320 0.0 0.0 0.00 0.10 0.10 81 1012.1
20260509013328 3 320 0.0 0.0 0.00 0.10 0.10 80 1011.9
20260509012848 3 310 0.0 0.0 0.00 0.10 0.10 79 1011.9
20260509012326 3 310 0.0 0.0 0.00 0.10 0.10 79 1011.8
20260509011826 4 310 0.0 0.0 0.00 0.10 0.10 79 1011.8
20260509011325 4 310 0.0 0.0 0.00 0.10 0.10 78 1011.7
20260509010822 4 310 0.0 0.0 0.00 0.10 0.10 77 1011.7